Weather History for KTWF - June, 2013

Change the Weather History Date:

Sunday, June 9, 2013

  Actual Average Record
Temperature  
Mean Temperature 78 °F -  
Max Temperature 94 °F 78 °F 94 °F (2013)
Min Temperature 62 °F 48 °F 34 °F (1999)
Degree Days  
Heating Degree Days 0 4  
Month to date heating degree days 10 44  
Since 1 June heating degree days 10 44  
Since 1 July heating degree days 5692 6128  
Cooling Degree Days 13 2  
Month to date cooling degree days 47 15  
Year to date cooling degree days 72 37  
Since 1 June cooling degree days 47 15  
Growing Degree Days 28 (Base 50)    
Moisture  
Dew Point 39 °F    
Average Humidity 36    
Maximum Humidity 57    
Minimum Humidity 14    
Precipitation  
Precipitation 0.00 in 0.05 in 0.32 in (1981)
Month to date precipitation 0.00 0.36  
Year to date precipitation 2.85 5.69  
Sea Level Pressure  
Sea Level Pressure 29.77 in    
Wind  
Wind Speed 9 mph (SW)    
Max Wind Speed 17 mph    
Max Gust Speed 21 mph    
Visibility 10 miles    
Events      
T = Trace of Precipitation, MM = Missing Value Source: NWS Daily Summary

Daily Weather History Graph

Daily Weather History Graph

Search for Another Location

Airport or City:

Trip Planner

Search our weather history database for the weather conditions in past years. The results will help you decide how hot, cold, wet, or windy it might be!

Date:

Astronomy

Jun. 09, 2013 Rise Set
Actual Time 6:00 AM MDT 9:14 PM MDT
Civil Twilight 5:25 AM MDT 9:48 PM MDT
Nautical Twilight 4:41 AM MDT 10:33 PM MDT
Astronomical Twilight 3:47 AM MDT 11:27 PM MDT
Moon 7:01 AM MDT (6/9) 10:02 PM MDT (6/9)
Length of Visible Light 16h 22m
Length of Day
15h 13m
New Moon, 1% of the Moon is Illuminated
Jun 9
New Moon
Jun 16
First Quarter
Jun 23
Full
Jun 29
Last Quarter
Jul 8
New

Hourly Weather History & Observations

Time (MDT) Temp. Dew Point Humidity Pressure Visibility Wind Dir Wind Speed Gust Speed Precip Events Conditions
12:53 AM 68.0 °F 30.9 °F 25% 29.87 in 10.0 mi South 13.8 mph - N/A   Clear
1:53 AM 66.0 °F 30.9 °F 27% 29.86 in 10.0 mi SSW 12.7 mph - N/A   Clear
2:53 AM 62.1 °F 33.1 °F 34% 29.86 in 10.0 mi South 13.8 mph - N/A   Clear
3:53 AM 64.0 °F 32.0 °F 30% 29.86 in 10.0 mi South 13.8 mph - N/A   Clear
4:53 AM 64.0 °F 32.0 °F 30% 29.85 in 10.0 mi South 12.7 mph - N/A   Clear
5:53 AM 63.0 °F 33.1 °F 33% 29.84 in 10.0 mi South 12.7 mph - N/A   Clear
6:53 AM 62.1 °F 35.1 °F 37% 29.85 in 10.0 mi South 10.4 mph - N/A   Clear
7:53 AM 69.1 °F 39.0 °F 33% 29.84 in 10.0 mi South 10.4 mph - N/A   Clear
8:53 AM 75.9 °F 39.0 °F 26% 29.84 in 10.0 mi South 9.2 mph - N/A   Clear
9:53 AM 80.1 °F 35.1 °F 20% 29.84 in 10.0 mi SW 6.9 mph - N/A   Clear
10:53 AM 82.9 °F 39.9 °F 22% 29.83 in 10.0 mi NW 9.2 mph - N/A   Clear
11:53 AM 84.9 °F 39.9 °F 20% 29.82 in 10.0 mi WNW 8.1 mph - N/A   Clear
12:53 PM 87.1 °F 42.1 °F 21% 29.81 in 10.0 mi NW 9.2 mph - N/A   Clear
1:53 PM 90.0 °F 39.9 °F 17% 29.78 in 10.0 mi NW 11.5 mph 19.6 mph N/A   Clear
2:53 PM 91.0 °F 39.0 °F 16% 29.76 in 10.0 mi WNW 11.5 mph 18.4 mph N/A   Clear
3:53 PM 91.9 °F 39.0 °F 16% 29.73 in 10.0 mi WNW 10.4 mph - N/A   Clear
4:53 PM 93.0 °F 37.0 °F 14% 29.69 in 10.0 mi NW 10.4 mph - N/A   Clear
5:53 PM 91.9 °F 37.0 °F 15% 29.68 in 10.0 mi NW 8.1 mph - N/A   Clear
6:53 PM 91.0 °F 37.9 °F 15% 29.65 in 10.0 mi NW 5.8 mph - N/A   Clear
7:53 PM 90.0 °F 37.9 °F 16% 29.65 in 10.0 mi NW 3.5 mph - N/A   Clear
8:53 PM 73.9 °F 57.0 °F 55% 29.66 in 10.0 mi SE 3.5 mph - N/A   Clear
9:53 PM 70.0 °F 48.0 °F 46% 29.66 in 10.0 mi SE 9.2 mph - N/A   Clear
10:53 PM 66.9 °F 48.0 °F 51% 29.67 in 10.0 mi SSE 4.6 mph - N/A   Clear
11:53 PM 72.0 °F 43.0 °F 35% 29.65 in 10.0 mi SSW 9.2 mph - N/A   Clear